#timestamp,LO_Frequency,Hit,StdDev 
1579647615.5,286047004.3,N
1579647635.4,286047001.7,N
1579647655.2,286047000.3,N
1579647675.1,286047000.5,N
1579647676.0,286047000.5,N
1579647695.8,286047000.7,N
1579647715.6,286046998.6,N
1579647735.5,286046998.1,N
1579647755.3,286047000.7,N
1579647775.2,286047001.8,N
1579647795.9,286047000.3,N
1579647815.7,286047001.2,N
1579647835.6,286047001.7,N
1579647855.4,286047001.8,N
1579647875.3,286047005.5,N
1579647895.1,286047001.4,N
1579647915.8,286047001.3,N
1579647935.7,286047001.9,N
1579647955.5,286047002.0,N
1579647975.4,286047001.3,N
1579647995.2,286046999.3,N
1579648015.0,286047001.2,N
1579648015.9,286047001.2,N
1579648035.8,286046996.6,N
1579648055.6,286046997.0,N
1579648075.4,286046998.1,N
1579648095.3,286047000.1,N
1579648115.1,286047000.7,N
1579648135.9,286046999.4,N
1579648155.7,286047001.1,N
1579648175.5,286047000.1,N
1579648195.4,286047000.0,N
1579648215.2,286047001.3,N
1579648235.1,286047000.8,N
1579648236.0,286047000.8,N
1579648255.8,286047001.2,N
1579648275.6,286047001.9,N
1579648295.5,286047002.1,N
1579648315.3,286047002.7,N
1579648335.2,286047000.5,N
1579648355.9,286047000.6,N
1579648375.7,286046998.3,N
1579648395.6,286046998.8,N
1579648415.4,286046999.3,N
1579648435.2,286046998.1,N
1579648455.1,286046998.4,N
1579648456.0,286046998.4,N
1579648475.8,286046997.1,N
1579648495.7,286046998.8,N
1579648515.5,286046998.5,N
1579648535.3,286046999.7,N
1579648555.2,286047001.1,N
1579648575.0,286047002.8,N
1579648575.9,286047002.8,N
1579648595.7,286046999.7,N
1579648615.6,286046998.6,N
1579648635.4,286046996.7,N
1579648655.3,286046999.6,N
1579648675.1,286046999.3,N
1579648695.8,286046998.2,N
1579648715.7,286047002.8,N
1579648735.5,286047002.2,N
1579648755.4,286047001.4,N
1579648775.2,286047002.2,N
1579648795.0,286047002.7,N
1579648795.9,286047002.7,N
1579648815.8,286047001.4,N
1579648835.6,286047004.3,N
1579648855.4,286046999.9,N
1579648875.3,286047001.7,N
1579648895.1,286047000.0,N
1579648915.9,286046998.1,N
1579648935.7,286047001.2,N
1579648955.5,286047000.4,N
1579648975.4,286047000.2,N
1579648995.2,286047002.2,N
1579649015.1,286047000.2,N
1579649016.0,286047000.2,N
1579649035.8,286047002.3,N
1579649055.6,286046999.7,N
1579649075.5,286047000.5,N
1579649095.3,286047002.3,N
1579649115.1,286047001.7,N
1579649135.9,286047003.7,N
1579649155.7,286047005.3,Y
1579649175.6,286047001.7,P
1579649195.4,286046999.9,N
1579649215.2,286046998.1,N
1579649235.1,286047000.0,N
1579649236.0,286047000.0,N
1579649255.8,286047001.4,N
1579649275.6,286046999.8,N
1579649295.5,286046999.9,N
1579649315.3,286047002.0,N
1579649335.2,286047001.9,N
1579649355.9,286047004.2,Y
1579649375.7,286047002.7,P
1579649395.6,286047000.2,N
1579649415.4,286047002.8,N
1579649435.3,286047003.8,Y
1579649455.1,286047001.4,P
1579649456.0,286047001.4,P
1579649475.8,286047001.5,P
1579649495.7,286047001.0,Y
1579649515.5,286046999.4,P
1579649535.3,286046999.4,N
1579649555.2,286046997.2,N
1579649575.0,286046998.3,N
1579649575.9,286046998.3,N
1579649595.8,286046999.4,N
1579649615.6,286046997.0,N
1579649635.4,286046999.1,N
1579649655.3,286047000.8,N
1579649675.1,286047001.2,N
1579649695.9,286047000.3,N
1579649715.7,286046998.3,N
1579649735.5,286046996.8,N
1579649755.4,286046997.3,N
1579649775.2,286046997.3,N
1579649795.0,286046997.0,N
1579649795.9,286046997.0,N
1579649815.8,286046998.0,N
1579649835.6,286046995.5,Y
1579649855.5,286046996.6,P
1579649875.3,286046998.9,N
1579649895.1,286047000.3,N
1579649915.9,286047001.0,N
1579649935.7,286047000.7,N
1579649955.6,286046999.3,N
1579649975.4,286046998.9,N
1579649995.2,286047000.5,N
1579650015.1,286046998.8,N
1579650016.0,286046998.8,N
1579650035.8,286046997.8,N
1579650055.6,286046997.8,N
1579650075.5,286046999.6,N
1579650095.3,286046998.2,N
1579650115.2,286046998.6,N
1579650135.9,286046998.4,N
1579650155.7,286046998.7,N
1579650175.6,286046998.9,N
1579650195.4,286046997.3,N
1579650215.2,286046997.0,N
1579650235.1,286046998.9,N
1579650236.0,286046998.9,N
1579650255.8,286046999.4,N
1579650275.7,286047000.9,N
1579650295.5,286047000.6,N
1579650315.3,286047001.2,N
1579650335.2,286047000.6,N
1579650355.0,286047001.1,N
1579650355.9,286047001.1,N
1579650375.7,286046999.3,N
1579650395.6,286046997.8,N
1579650415.4,286046998.6,N
1579650435.3,286046998.3,N
1579650455.1,286046998.9,N
1579650456.0,286046998.9,N
1579650475.8,286046998.8,N
1579650495.7,286046996.8,N
1579650515.5,286046995.5,Y
1579650535.4,286046996.8,P
1579650555.2,286046998.8,N
1579650575.0,286046998.4,N
1579650575.9,286046998.4,N
1579650595.8,286046999.4,N
1579650615.6,286046999.1,N
1579650635.4,286046996.8,Y
1579650655.3,286047000.7,P
1579650675.1,286046998.7,N
1579650695.9,286046998.1,N
1579650715.7,286047001.1,N
1579650735.5,286046998.6,N
1579650755.4,286046999.3,N
1579650775.2,286047000.9,N
1579650795.0,286046998.5,N
1579650795.9,286046998.5,N
1579650815.8,286046998.9,N
1579650835.6,286046998.8,N
1579650855.5,286046998.1,N
1579650875.3,286046999.1,N
1579650895.1,286046996.6,Y
1579650915.9,286046998.3,P
1579650935.7,286047002.8,P
1579650955.5,286046998.3,N
1579650975.4,286047000.3,N
1579650995.2,286047000.6,N
1579651015.1,286047001.6,N
1579651016.0,286047001.6,N
1579651035.8,286047003.5,N
1579651085.7,286047004.7,E
1579651095.6,286047001.8,N
1579651115.4,286046999.5,P
1579651135.3,286046998.5,N
1579651155.8,286046997.0,N
1579651175.7,286046999.4,N
1579651195.5,286046999.5,N
